Overview Statistics Trail Chart Weather Telemetry Raw packets
 

This is the latest recevied weather packets stored in our database for station/object W1HVD. If no packets are shown the sender has not sent any weather packets the latest 10 day(s).

<< 55 56 57 58 59 60 61 >>
Time Temp. Humidity Pressure Rain* Wind** Luminosity Snow
1777303647 16.11° C 48% 1024.9 hPa 0 mm - 715 W/m² -
1777303345 15.56° C 46% 1025.2 hPa 0 mm - 710 W/m² -
1777303042 15.56° C 46% 1025 hPa 0 mm - 705 W/m² -
1777302743 16.11° C 45% 1025 hPa 0 mm - 700 W/m² -
1777302438 16.67° C 45% 1024.9 hPa 0 mm - 693 W/m² -
1777302135 16.11° C 46% 1024.8 hPa 0 mm - 687 W/m² -
1777301833 16.11° C 46% 1024.8 hPa 0 mm - 680 W/m² -
1777301530 15.56° C 47% 1024.8 hPa 0 mm - 674 W/m² -
1777301227 16.11° C 46% 1024.9 hPa 0 mm - 666 W/m² -
1777300923 16.11° C 47% 1024.7 hPa 0 mm - 658 W/m² -
1777300622 16.11° C 45% 1024.9 hPa 0 mm - 650 W/m² -
1777300319 15.56° C 48% 1024.8 hPa 0 mm - 641 W/m² -
1777300016 15.56° C 50% 1024.9 hPa 0 mm - 632 W/m² -
1777299712 15.56° C 48% 1024.9 hPa 0 mm - 623 W/m² -
1777299410 16.11° C 46% 1024.7 hPa 0 mm - 614 W/m² -
1777299108 15° C 47% 1024.7 hPa 0 mm - 604 W/m² -
1777298805 15.56° C 47% 1024.6 hPa 0 mm - 594 W/m² -
1777298500 15° C 50% 1024.6 hPa 0 mm - 584 W/m² -
1777298197 15.56° C 50% 1024.6 hPa 0 mm - 573 W/m² -
1777297893 14.44° C 50% 1024.7 hPa 0 mm - 561 W/m² -
1777297590 14.44° C 51% 1024.5 hPa 0 mm - 549 W/m² -
1777297287 14.44° C 52% 1024.4 hPa 0 mm - 537 W/m² -
1777296985 14.44° C 51% 1024.4 hPa 0 mm - 525 W/m² -
1777296681 14.44° C 51% 1024.4 hPa 0 mm - 514 W/m² -
1777296361 13.89° C 52% 1024.5 hPa 0 mm - 501 W/m² -

* Rain latest hour (hover to see other rain measurements)
** Current wind speed in m/s (hover to see current wind gust speed)